Regional Weather Roundup
Issued by NWS Kansas City/Pleasant Hill, MO

Home | Current Version | Previous Version | Graphics & Text | Print | Product List | Glossary Off
Versions: 1 2 3 4 5 6 7 8 9 10 11 12 13 14 15 16 17 18 19 20 21 22 23 24 25 26 27 28 29 30 31 32 33 34 35 36 37 38 39 40 41 42 43 44 45 46 47 48 49 50

000
ASUS43 KEAX 312210
RWREAX

WEATHER ROUNDUP FOR EASTERN KANSAS AND NORTHWEST MISSOURI
NATIONAL WEATHER SERVICE KANSAS CITY/PLEASANT HILL MO
500 PM CDT FRI JUL 31 2015

KSZ040-057-103>105-MOZ028-029-037-043-312300-
...KANSAS CITY METROPOLITAN AREA...

CITY           SKY/WX    TMP DP  RH WIND       PRES   REMARKS
K.C. INTL      MOSUNNY   87  67  51 W3        30.08F HX  90
K.C. DOWNTOWN  SUNNY     90  68  48 NW6       30.06F HX  94
LEES SUMMIT    SUNNY     90  60  36 CALM      30.08F
OLATHE - IXD   SUNNY     88  66  48 N7        30.09F HX  90
OLATHE - OJC   SUNNY     89  62  40 NW3       30.08F
LAWRENCE       SUNNY     90  69  50 N5        30.07F HX  94

$$

MOZ001>008-011>017-020>025-030>033-038>040-044>046-053-054-312300-
...NORTHERN AND CENTRAL MISSOURI...

CITY           SKY/WX    TMP DP  RH WIND       PRES   REMARKS
ST. JOSEPH     SUNNY     88  72  58 VRB5      30.06F HX  94
MOSBY          CLEAR     88  61  40 W3        30.07S
WARRENSBURG    SUNNY     90  57  33 W7        30.07F
WHITEMAN AFB   SUNNY     91  56  30 VRB6      30.06F
CLINTON        SUNNY     91  64  40 S5        30.08F HX  93
SEDALIA        SUNNY     91  60  35 W7        30.08F HX  90
WARSAW         NOT AVBL
CHILLICOTHE      N/A     90  71  53 NW5       30.06F HX  96
KIRKSVILLE     SUNNY     87  65  47 VRB6      30.06F

$$

MOZ041-047>049-056>058-063>065-088>090-097-312300-
...EASTERN AND SOUTHERN MISSOURI...

CITY           SKY/WX    TMP DP  RH WIND       PRES   REMARKS
ST. LOUIS INTL MOSUNNY   93  60  33 NW10      30.04F HX  93
SPIRIT OF STL  MOSUNNY   92  60  34 NW6       30.03F HX  91
COLUMBIA       SUNNY     89  63  41 W7        30.07F HX  90
JEFFERSON CITY SUNNY     91  59  33 NW7       30.05F HX  90
ROLLA          SUNNY     88  56  33 W9        30.08F
OSAGE BEACH    SUNNY     90  61  37 SW6       30.08F
SPRINGFIELD    SUNNY     88  55  32 SW9       30.10F
BRANSON        MOSUNNY   90  57  33 CALM      30.12F
JOPLIN         SUNNY     90  63  40 S6        30.09F HX  91
WEST PLAINS    SUNNY     89  58  34 W8        30.12F

$$

IAZ060-094-KSZ022-034>040-054-083-096-NEZ052-066-093-312300-
...KANSAS...SOUTHEAST NEBRASKA AND IOWA...

CITY           SKY/WX    TMP DP  RH WIND       PRES   REMARKS
TOPEKA         SUNNY     89  66  46 SE3       30.07F HX  91
MANHATTAN      SUNNY     92  69  47 W5        30.06F HX  97
EMPORIA        SUNNY     90  66  45 CALM      30.08F HX  92
CHANUTE        MOSUNNY   91  67  44 CALM      30.07F HX  94
WICHITA        MOSUNNY   89  67  47 CALM      30.08F HX  92
OMAHA          PTSUNNY   87  75  67 NW5       30.03F HX  96
LINCOLN        MOSUNNY   90  69  50 W7        30.05F HX  94
FALLS CITY     MOSUNNY   89  74  60 E3        30.06F HX  98
LAMONI         SUNNY     87  71  58 NW6       30.07F HX  93
DES MOINES     PTSUNNY   87  65  47 NE6       30.05F

$$




USA.gov is the U.S. government's official web portal to all federal, state and local government web resources and services.